Overview Statistics Trail Chart Weather Telemetry Raw packets
 

This is the latest recevied weather packets stored in our database for station/object OK2ZAW-19. If no packets are shown the sender has not sent any weather packets the latest 10 day(s).

<< 1 2 3 4 5 6 7 >>
Time Temp. Humidity Pressure Rain* Wind** Luminosity Snow
1788541077 24.44° C 54% 1014.2 hPa - - 338 W/m² -
1788540765 24.44° C 53% 1014.1 hPa - - 338 W/m² -
1788540453 25° C 52% 1014.2 hPa - - 338 W/m² -
1788539828 25.56° C 51% 1014.3 hPa - - 337 W/m² -
1788539516 26.11° C 50% 1014.3 hPa - - 338 W/m² -
1788539204 26.11° C 50% 1014.4 hPa - - 338 W/m² -
1788538268 27.22° C 49% 1014.3 hPa - - 338 W/m² -
1788537956 27.22° C 48% 1014.4 hPa - - 338 W/m² -
1788537331 27.78° C 47% 1014.5 hPa - - 338 W/m² -
1788537019 27.78° C 47% 1014.5 hPa - - 338 W/m² -
1788536706 27.78° C 47% 1014.5 hPa - - 338 W/m² -
1788536394 27.78° C 47% 1014.8 hPa - - 338 W/m² -
1788536082 27.78° C 47% 1014.7 hPa - - 338 W/m² -
1788535769 28.33° C 47% 1015 hPa - - 338 W/m² -
1788535457 27.78° C 47% 1015.1 hPa - - 338 W/m² -
1788535145 27.78° C 47% 1015.1 hPa - - 338 W/m² -
1788534832 27.78° C 47% 1015.2 hPa - - 338 W/m² -
1788534520 27.78° C 47% 1015.3 hPa - - 338 W/m² -
1788534207 27.22° C 49% 1015.5 hPa - - 338 W/m² -
1788533583 26.67° C 49% 1015.7 hPa - - 338 W/m² -
1788533271 27.22° C 50% 1015.7 hPa - - 338 W/m² -
1788532958 27.22° C 49% 1015.8 hPa - - 337 W/m² -
1788532646 27.22° C 49% 1015.8 hPa - - 338 W/m² -
1788532334 27.22° C 50% 1016.1 hPa - - 338 W/m² -
1788532022 26.67° C 53% 1016.2 hPa - - 338 W/m² -

* Rain since midnight (hover to see other rain measurements)
** Current wind speed in m/s (hover to see current wind gust speed)